Regional Weather Roundup
Issued by NWS

Home | Current Version | Previous Version | Text Only | Print | Product List | Glossary Off
Versions: 1 2 3 4 5 6 7 8 9 10 11 12 13 14 15 16 17 18 19 20 21 22 23 24 25 26 27

000
ASUS45 KBOU 300807
RWRCO

WEATHER ROUNDUP FOR COLORADO
NATIONAL WEATHER SERVICE DENVER/BOULDER CO
200 AM MDT SUN APR 30 2017

NOTE: "FAIR" INDICATES FEW OR NO CLOUDS BELOW 12000 FEET WITH NO
SIGNIFICANT WEATHER AND/OR OBSTRUCTIONS TO VISIBILITY.

COZ001>005-013-030-031-300900-
...NORTHWEST COLORADO...

CITY           SKY/WX    TMP DP  RH WIND       PRES   REMARKS
CRAIG          FAIR      24  18  77 CALM      30.17F
HAYDEN         FAIR      25  18  74 SW6       30.15F WCI  18
MEEKER         FAIR      26  20  77 CALM      30.17F
MOUNT WERNER   NOT AVBL
STEAMBOAT SPGS FAIR      24  18  79 CALM      30.15S
WALDEN           N/A     16  10  79 SE3       30.14F
$$

COZ006>008-011-300900-
...WEST CENTRAL VALLEYS...

CITY           SKY/WX    TMP DP  RH WIND       PRES   REMARKS
GRAND JUNCTION FAIR      34  17  50 CALM      30.16F
MONTROSE       CLOUDY    37  21  52 NW15      30.16R
EAGLE          CLOUDY    30  23  75 CALM      30.16S
RIFLE          FAIR      36  21  54 SW3       30.16S
DELTA          FAIR      42  20  42 W8        30.14S
NUCLA          FAIR      36  18  48 N10       30.18S
$$

COZ017>023-064>068-300900-
...SOUTHWEST COLORADO...

CITY           SKY/WX    TMP DP  RH WIND       PRES   REMARKS
DURANGO        FAIR      26  22  84 N8        30.04S WCI  18
CORTEZ         FAIR      36  21  54 N10       30.11R
PAGOSA SPRINGS FOG       30  29  95 S3        30.05R VSB 1
TELLURIDE      LGT SNOW  27  20  75 NW3       30.12S
WOLF CREEK PAS FAIR      12  12 100 NW7       30.08R WCI   2
$$

COZ009-010-012-014-032>034-037-058>063-300900-
...CENTRAL COLORADO...

CITY           SKY/WX    TMP DP  RH WIND       PRES   REMARKS
ASPEN          CLOUDY    29  20  69 CALM      30.11S
BUENA VISTA    FAIR      26  17  67 NW13      30.05S WCI  15
COPPER MTN     LGT SNOW  14   9  79 MISG      30.05F VSB 1
BERTHOUD PASS  CLOUDY     7  -4  61 N13G24    30.03F WCI  -9
COTTONWOOD PAS FAIR      25  14  63 W9        30.03F WCI  15
GUNNISON       FAIR      25  18  74 CALM      30.09S
KREMMLING      FAIR      28  19  69 W3        30.16S
LEADVILLE      CLOUDY    18  12  77 N14       30.06F WCI   4
SALIDA         FAIR      24  20  85 W3        30.14S
SUNLIGHT       FOG       18  14  86 N5        30.16S VSB 1/2 WCI  11
WILKERSON PASS FAIR     N/A N/A N/A N14G24    30.03S
$$

COZ069>075-300900-
...SAN LUIS VALLEY/SANGRE DE CRISTO MOUNTAINS...

CITY           SKY/WX    TMP DP  RH WIND       PRES   REMARKS
ALAMOSA        CLOUDY    25  23  92 SW5       30.00F WCI  19
LA VETA PASS   LGT SNOW  18  14  86 W15G26    30.07F WCI   3
SAGUACHE       FAIR      30  14  51 N13       30.02S WCI  20
$$

COZ035-036-038>040-300900-
...NORTHERN COLORADO FRONT RANGE...

CITY           SKY/WX    TMP DP  RH WIND       PRES   REMARKS
DENVER INTL AP MOCLDY    30  21  69 NW12      30.09F WCI  20
DMNS CITY PARK   N/A     29  19  67 W1        30.11R
AURORA         CLOUDY    28  22  79 NW7       30.10F WCI  21
FRONT RANGE AP CLOUDY    30  27  86 NW12      30.09F WCI  21
ERIE MUNI ARPT FAIR      30  23  75 CALM      30.11F
BOULDER MUN AP FAIR      32  19  59 SW5       30.10F WCI  27
CENTENNIAL     MOCLDY    27  20  75 NW8       30.09F WCI  19
BROOMFIELD     FAIR      30  19  64 NW9       30.10F WCI  22
FORT COLLINS   FAIR      29  17  61 N7        30.10F WCI  22
LONGMONT       FAIR      32  21  64 CALM      30.12F
$$

COZ041-046-047-076>085-087-088-300900-
...PIKES PEAK/PALMER DIVIDE AND SOUTHERN FOOTHILLS...

CITY           SKY/WX    TMP DP  RH WIND       PRES   REMARKS
COLO. SPRINGS  CLOUDY    30  14  51 NW24G30   30.04F WCI  16
A. F. ACADEMY  CLOUDY    27  12  53 NW18G25   30.04F WCI  14
SCHRIEVER AFB  MOCLDY    28  17  63 NW18G26   30.02F WCI  15
ELLICOTT       CLOUDY   N/A N/A N/A N28G35    29.96F
FALCON         CLOUDY    26  14  61 NW17G26   30.02F WCI  13
FORT CARSON    CLOUDY    31  18  56 NW23G33   30.02F WCI  18
LIMON          CLOUDY    29  23  78 NW29G36   29.98F WCI  14
MONUMENT HILL  CLOUDY    23  16  74 NW17      30.06F WCI   9
TRINIDAD       LGT SNOW  28  25  88 NW22G33   29.99F VSB 1   WCI  14
$$

COZ042>045-048>051-090-091-300900-
...NORTHEAST COLORADO...

CITY           SKY/WX    TMP DP  RH WIND       PRES   REMARKS
GREELEY ARPT   FAIR      31  23  72 NW14      30.11F WCI  21
AKRON          FAIR      33  25  72 N21       29.98F WCI  21
BURLINGTON     NOT AVBL
WRAY           NOT AVBL
STERLING       FAIR      34  28  80 N17       30.02F WCI  23
HOLYOKE        FAIR      37  27  65 N18G25    29.96F
FORT MORGAN    FAIR      32  21  63 NW16      30.06F WCI  22
$$

COZ086-089-092>099-300900-
...SOUTHEAST COLORADO...

CITY           SKY/WX    TMP DP  RH WIND       PRES   REMARKS
PUEBLO         CLOUDY    35  26  69 NW17      30.02F WCI  25
LA JUNTA       LGT SNOW  35  27  72 N26G36    29.97F WCI  22
LAMAR          LGT SNOW  35  29  78 N22G30    29.88F WCI  23
SPRINGFIELD      N/A     30  30 100 N33G41    29.84F WCI  14
$$




USA.gov is the U.S. government's official web portal to all federal, state and local government web resources and services.